SCP
-0 0 0 0 0 0 0 0 0 0 0 0 0 0 0 0 0 0 0 0 0 0 0 0 0 0 0 0 0 0 0 0 0 0 0 0 0 0 0 0 0 0 0
0 0 0 0 0 0 0 0 0 0 0 0 0 0 0 0 0 0 0 0 0 0 0 0 0 0 0 0 0 0 0 0 0 0 0 0 0 0 0 0 0 0 0
0 0 0 0 0 0 0 0 0 0 0 0 0 0 0 0 0 0 0 0 0 0 0 0 0 0 0 0 0 0 0 0 0 0 0 0 0 0 0 0 0 0 0
0 0 0 0 0 0 0 0 0 0 0 0 0 0 0 0 0 0 -0 0 0 0 0 0 0 0 0 0 0 0 0 0 0 0 0 0 0 0 0 0 0 0 0
0 0 0 0 0 0 0 0 0 0 0 0 0 0 0 0 0 -0 -0 -0 0 0 0 0 0 0 0 0 0 0 0 0 0 0 0 0 0 0 0 0 0 0 0
0 0 0 0 0 0 0 0 0 0 0 0 0 0 0 0 0 0 -0 -0 -0 0 0 0 0 0 0 0 0 0 0 0 0 0 0 0 0 0 0 0 0 0 0
0 0 0 0 0 0 0 0 0 0 0 0 0 0 0 0 0 0 0 -0 -0 -0 0 0 0 0 0 0 0 0 0 0 0 0 0 0 0 0 0 0 0 0 0
0 0 0 0 0 0 0 0 0 0 0 0 0 0 0 0 0 0 0 0 0 0 0 0 0 0 0 0 0 0 0 0 0 0 0 0 0 0 0 0 0 0 0
0 0 0 0 0 0 0 0 0 0 0 0 0 0 0 0 0 0 0 0 0 0 0 0 0 0 0 0 0 0 0 0 0 0 0 0 0 0 0 0 0 0 0
0 0 0 0 0 0 0 0 0 0 0 0 0 -0 -0 -0 0 0 0 0 0 0 0 0 0 0 0 0 0 0 0 0 0 0 0 0 0 0 0 0 0 0 0
0 0 0 0 0 0 0 0 0 0 0 0 0 -0 -0 -0 -0 0 0 0 0 0 0 0 0 0 0 0 0 0 0 0 0 0 0 0 0 0 0 0 0 0 0
-0 -0 -0 0 0 0 0 0 0 0 0 0 -0 -0 -0 -0 -0 -0 0 0 -0 0 0 0 0 0 0 0 0 0 -0 -0 0 0 0 0 0 0 0 0 0 0 0
-0 -0 -0 -0 0 0 0 0 0 0 0 0 0 -0 0 0 0 0 0 -0 -0 -0 0 0 0 0 0 0 0 -0 -0 -0 -0 0 0 0 0 0 0 0 0 0 0
-0 -0 -0 0 0 0 0 0 0 0 0 0 0 0 0 0 0 0 0 -0 -0 -0 -0 0 0 0 0 0 -0 -0 -0 -0 -0 -0 0 0 0 0 0 0 0 0 0
-0 -0 0 0 0 0 0 0 0 0 0 0 0 0 0 0 0 -0 -0 -0 -0 -0 -0 0 0 -0 0 0 -0 -0 -0 -0 -0 -0 0 0 0 0 0 0 0 0 0
-0 -0 0 0 0 0 0 0 0 0 0 0 0 0 0 0 0 0 0 -0 -0 -0 -0 -0 0 0 0 0 -0 -0 -0 -0 -0 -0 -0 0 0 0 0 0 0 0 0
-0 0 0 0 0 0 0 0 0 0 0 0 0 0 0 0 0 0 0 -0 -0 -0 -0 -0 0 0 0 -0 -0 -0 -0 -0 -0 -0 -0 0 0 0 0 0 0 0 0
0 0 0 0 0 0 0 0 0 0 0 0 0 0 0 0 0 0 0 -0 -0 -0 -0 -0 -0 0 0 -0 -0 -0 -0 -0 -0 -0 -0 0 0 0 0 0 0 0 0
0 0 0 0 0 0 0 0 0 0 0 0 0 0 0 0 0 0 -0 -0 -0 -0 -0 -0 -0 -0 -0 -0 -0 -0 -0 -0 -0 -0 -0 -0 0 0 0 0 0 0 0
0 0 0 0 0 0 0 0 0 0 0 0 0 0 0 0 0 0 -0 -0 -0 -0 -0 -0 -0 -0 -0 -0 -0 -0 -0 -0 -0 -0 -0 0 0 0 0 0 0 0 0
0 0 0 0 0 0 -0 -0 -0 0 0 0 0 0 0 0 0 0 0 0 -0 -0 -0 -0 -0 -0 -0 -0 -0 -0 -0 -0 -0 -0 -0 0 0 0 0 0 0 0 0
0 0 0 0 0 0 -0 -0 0 0 0 0 0 0 0 0 0 0 0 0 -0 -0 -0 -0 -0 -0 -0 -0 -0 -0 -0 -0 -0 -0 -0 0 0 0 0 0 0 0 0
0 0 0 0 0 0 -0 0 0 0 0 0 0 0 0 0 0 0 0 0 0 0 0 0 0 -0 -0 -0 -0 -0 -0 -0 -0 -0 0 0 0 0 0 0 0 0 0
0 0 0 0 0 0 -0 0 0 0 0 0 0 0 0 0 0 0 0 0 0 0 0 0 0 -0 -0 -0 -0 -0 -0 -0 -0 -0 0 0 0 0 0 0 0 0 0
0 0 0 0 0 0 0 0 0 0 0 0 0 0 0 0 0 0 0 0 0 0 0 0 0 0 -0 -0 -0 -0 0 0 -0 0 0 0 0 0 0 0 0 0 0
0 0 0 0 0 0 0 0 0 0 0 0 0 0 0 0 0 0 0 0 0 0 0 0 0 0 -0 -0 -0 0 0 0 0 -0 -0 0 0 0 0 0 0 0 0
Wind_Speed
1 2 9 10 11 12 13 13 13 13 13 13 13 13 13 12 12 12 11 11 11 11 10 10 9 9 9 8 8 7 7 7 6 6 6 6 6 6 6 6 5 3 5
3 4 10 11 12 12 13 13 13 13 13 12 12 12 12 11 11 11 11 10 10 10 10 9 8 8 8 8 7 7 7 6 6 6 6 5 5 5 5 5 5 3 4
6 5 7 11 12 12 13 13 13 13 12 12 12 12 11 11 10 10 10 9 9 9 9 8 8 8 7 7 7 7 7 6 5 5 5 2 2 4 5 5 5 5 4
7 5 7 11 12 12 12 12 12 12 11 11 11 11 10 10 10 9 9 9 8 8 8 8 7 7 6 6 7 7 6 6 6 5 3 2 2 5 5 5 4 4 4
7 5 7 12 12 12 11 12 11 11 11 10 10 10 9 9 9 8 8 8 8 8 7 7 6 6 6 6 6 6 6 5 5 4 2 2 1 3 5 4 4 4 4
7 5 7 12 12 12 11 11 11 10 10 9 9 9 8 8 8 8 8 7 7 6 6 6 6 5 6 6 6 6 5 5 4 2 2 2 1 3 4 4 4 4 4
6 4 6 11 11 11 11 10 9 9 8 8 8 7 7 6 6 6 6 6 6 5 5 5 5 5 5 5 5 5 4 4 3 2 1 1 1 4 4 4 4 4 4
7 5 5 10 11 10 10 9 8 7 7 6 6 5 5 4 4 4 4 5 4 4 4 4 4 5 5 5 5 5 4 3 3 2 1 0 2 4 4 5 4 4 4
6 5 3 4 6 8 8 7 7 6 5 4 4 3 3 2 2 2 3 3 3 3 3 4 4 5 5 5 5 5 4 4 3 1 1 1 3 4 5 5 5 5 4
5 4 4 3 2 2 2 5 5 4 3 3 3 3 2 2 1 1 2 2 3 3 4 5 5 5 6 5 6 5 4 4 2 1 1 1 4 5 5 5 5 5 4
5 3 3 3 2 2 1 2 2 2 2 3 3 3 3 2 2 2 2 3 3 4 5 6 6 5 6 6 6 5 3 1 2 1 1 3 4 5 5 5 5 5 5
5 4 3 4 3 2 1 1 1 1 2 2 2 2 2 2 2 2 4 5 5 6 6 7 6 5 4 3 4 4 2 2 1 1 1 4 5 5 6 5 5 5 5
5 5 4 4 3 2 1 1 1 1 2 2 2 2 2 2 2 2 2 3 4 5 4 5 5 3 3 2 2 2 1 2 1 1 1 4 5 5 6 6 6 5 6
5 4 4 4 3 2 2 2 1 1 2 2 3 3 2 2 2 2 2 3 2 2 3 3 2 3 3 3 3 3 2 2 1 1 1 4 4 5 6 6 6 5 6
5 4 3 4 4 3 3 2 3 2 2 2 3 3 3 3 2 2 2 3 3 2 3 3 3 4 4 4 3 3 3 3 2 1 1 3 5 5 5 6 6 6 6
4 4 4 5 4 5 4 3 2 2 3 3 3 4 4 3 2 3 3 3 4 3 3 3 3 3 3 3 4 3 3 3 2 2 2 2 4 5 5 5 6 6 6
5 5 5 5 5 5 5 4 3 3 3 3 3 4 4 4 3 3 3 4 3 3 4 3 4 3 4 4 4 4 3 3 2 2 2 2 2 4 5 6 6 6 6
5 5 5 6 6 5 4 4 3 3 3 3 3 3 4 4 4 4 3 3 4 4 4 3 3 3 3 3 3 3 3 3 4 3 3 3 2 3 4 7 7 7 7
6 6 5 5 5 5 5 4 4 3 4 3 3 3 4 5 5 4 3 3 4 4 4 3 3 3 3 3 3 3 4 4 3 5 4 4 3 3 3 6 8 8 8
6 6 5 5 5 5 4 4 3 4 3 3 3 3 4 4 5 4 4 4 4 4 4 4 3 3 2 2 3 4 4 4 4 4 4 4 4 4 4 5 4 6 10
5 5 5 5 4 4 3 3 3 2 2 2 3 4 5 5 5 5 4 4 4 4 4 4 3 4 4 3 3 3 4 4 5 4 4 4 5 5 5 5 4 4 4
6 5 5 5 4 4 3 2 2 2 1 1 2 4 5 5 5 4 4 3 4 4 5 5 4 3 3 4 3 3 3 5 4 5 4 5 5 5 5 5 5 5 4
6 6 5 4 4 4 4 3 3 3 3 3 3 2 3 4 5 4 4 4 4 4 3 4 4 4 3 4 3 3 3 0 2 4 4 5 5 4 4 4 5 5 5
6 6 6 5 4 4 5 5 5 3 2 1 1 1 2 4 4 4 4 4 4 3 4 4 4 3 4 3 3 3 2 2 2 2 4 4 5 5 5 5 5 5 5
6 6 5 5 4 4 4 5 5 3 2 1 1 2 2 3 3 3 4 4 4 3 4 4 4 4 3 3 2 2 3 3 3 3 1 3 4 3 4 4 3 4 4
5 5 5 5 4 4 5 5 5 6 4 3 2 1 1 1 2 2 3 3 3 3 3 3 4 5 4 4 4 3 3 2 2 2 2 1 2 3 3 3 4 4 4
Wind_Direction
66 101 105 100 96 94 92 89 86 85 84 82 80 80 79 77 76 75 72 70 68 66 67 65 65 66 64 63 62 60 61 60 60 60 65 66 68 69 73 78 87 91 89
128 104 103 100 97 94 92 90 88 87 85 83 81 79 78 78 75 72 70 69 68 66 65 63 62 61 62 58 55 51 51 51 51 53 58 54 62 69 75 79 88 94 91
114 105 103 101 99 96 94 90 88 87 85 83 81 79 77 76 73 70 68 65 63 61 60 59 59 57 56 52 46 42 41 42 48 52 54 39 54 75 83 83 85 85 87
118 110 109 105 100 97 94 92 90 88 86 84 81 79 77 75 74 71 68 65 61 58 56 53 52 52 48 44 38 32 32 38 51 47 45 30 42 83 88 86 84 82 79
112 109 111 106 102 98 96 94 92 90 88 85 81 76 74 73 72 69 67 65 63 58 54 49 45 41 38 33 29 24 24 31 42 45 45 40 40 84 86 83 82 84 78
111 110 115 109 106 102 97 94 92 91 89 85 82 80 76 72 70 70 67 65 64 59 53 46 39 32 28 25 22 19 24 27 38 43 48 50 51 81 82 81 83 88 81
118 116 118 114 112 108 104 101 97 95 93 90 85 82 78 75 72 70 71 67 64 58 47 36 29 25 21 20 20 20 24 28 54 45 39 33 87 85 78 80 85 88 80
133 131 125 124 121 117 114 111 107 102 96 91 85 82 80 76 74 67 67 69 64 52 34 17 7 6 10 11 13 14 14 28 54 51 28 3 95 88 86 88 88 84 76
137 133 129 130 125 125 122 117 115 111 102 92 81 74 75 75 77 70 54 58 54 36 13 360 351 353 355 355 358 9 16 33 47 25 70 46 73 81 89 89 88 84 75
141 145 146 137 125 121 123 124 119 110 94 76 61 52 45 38 48 32 7 11 19 15 3 354 345 342 339 342 350 7 29 42 33 35 40 69 75 81 87 88 87 83 78
154 163 157 153 157 162 177 141 109 79 43 26 16 32 29 352 341 332 324 345 351 351 350 347 340 331 335 346 353 8 40 52 38 44 32 83 81 78 83 88 87 81 77
158 173 166 168 176 185 180 102 42 25 13 9 356 11 21 0 336 353 343 360 357 355 353 357 0 350 347 351 360 18 42 57 49 48 83 91 88 84 81 87 87 79 78
151 153 167 170 164 160 134 101 61 25 15 5 2 28 43 36 10 12 359 351 354 1 1 4 9 10 9 4 29 44 58 57 52 37 77 95 88 83 79 83 84 81 79
126 141 149 147 135 131 114 99 92 63 39 28 20 35 57 51 34 19 5 356 358 358 7 12 15 19 26 30 53 59 60 73 75 51 58 86 81 81 80 75 77 77 76
120 133 137 124 116 114 98 88 81 65 55 42 35 31 56 62 45 27 14 10 6 9 17 18 25 31 30 32 45 64 69 70 75 66 36 69 69 66 71 74 77 74 74
121 125 118 102 105 100 93 91 79 67 58 50 41 38 50 57 51 39 23 17 12 11 21 33 35 37 33 36 36 44 64 73 68 63 42 42 56 58 61 67 72 75 74
127 119 115 111 99 96 98 97 87 71 63 52 40 41 47 49 52 50 37 24 9 13 27 35 33 36 38 38 37 39 48 59 64 61 54 30 26 46 54 59 66 68 74
123 118 117 110 98 93 95 97 89 76 67 52 40 39 41 43 51 54 45 26 12 22 28 35 32 36 29 30 34 33 36 46 51 58 59 43 34 32 38 52 55 58 64
128 122 113 107 105 101 95 90 81 75 67 53 44 41 39 42 48 57 48 26 24 32 28 32 37 39 34 25 39 43 34 40 38 52 51 45 39 38 35 45 48 50 54
127 123 119 111 112 107 93 79 62 53 47 43 44 42 44 43 48 55 53 33 33 37 28 28 37 34 39 31 56 48 30 30 36 43 44 40 38 42 44 43 36 37 46
124 121 125 122 123 116 103 97 86 67 43 38 43 46 47 49 53 58 52 40 39 44 33 30 36 38 28 26 57 30 10 23 36 32 31 37 37 37 45 48 40 32 31
144 138 135 137 136 132 131 133 129 121 91 62 33 38 40 49 52 64 61 50 43 46 37 33 38 47 28 30 78 75 25 3 5 19 23 35 32 33 40 51 45 41 36
153 154 152 152 142 134 127 108 86 64 47 33 29 24 24 51 60 61 58 57 51 56 50 40 43 61 52 25 46 105 110 99 337 352 15 25 24 34 32 40 44 39 39
165 156 149 147 143 136 127 125 130 129 134 179 179 59 37 44 58 66 64 57 53 53 51 45 54 58 72 46 25 42 88 133 111 16 352 3 21 33 29 39 39 35 33
159 151 147 142 139 135 129 135 131 129 145 147 108 74 47 31 41 60 66 61 56 54 55 55 54 55 63 73 57 44 48 48 64 103 34 346 1 7 19 30 35 31 26
149 147 146 143 146 142 137 138 140 143 142 130 125 109 57 32 29 44 65 62 61 59 59 63 66 66 63 70 66 62 74 72 56 83 95 8 353 339 4 19 25 19 15